Location: Bidart
(43.4376°N, 1.5913°W)
Time: 19:20:02
(UTC+00:00)

ISS - Pass Details

Date: 19 May 2025
Orbit: 415 x 417 km, 51.6° (Epoch: 23 June)

Event Time Altitude Azimuth Distance (km) Brightness Sun altitude
Rises 20:08:07 0° 294° (WNW) 2,362 2.1 -6.9°
Reaches altitude 10° 20:10:37 10° 312° (NW) 1,497 0.8 -7.3°
Maximum altitude 20:13:09 20° 1° (N) 1,046 -1.3 -7.6°
Drops below altitude 10° 20:15:42 10° 51° (NE) 1,494 -1.1 -8.0°
Sets 20:18:08 0° 69° (ENE) 2,334 -0.3 -8.3°
